Regional Weather Roundup
Issued by NWS Columbia, SC

Home | Current Version | Previous Version | Text Only | Print | Product List | Glossary On
Versions: 1 2 3 4 5 6 7 8 9 10 11 12 13 14 15 16 17 18 19 20 21 22 23 24 25 26 27
000
ASUS42 KCAE 252010
RWRCAE
REGIONAL WEATHER ROUNDUP
NATIONAL WEATHER SERVICE COLUMBIA SC
400 PM EDT TUE APR 25 2017

NOTE: "FAIR" INDICATES FEW OR NO CLOUDS BELOW 12,000 FEET WITH NO
SIGNIFICANT WEATHER AND/OR OBSTRUCTIONS TO VISIBILITY.

NOT ALL STATIONS ARE QUALITY CONTROLLED BY THE NATIONAL
WEATHER SERVICE. USE DATA WITH CAUTION...ESPECIALLY
DEWPOINT OBSERVATIONS.

SCZ001>056-GAZ040-063>065-077-252100-
...UPSTATE SOUTH CAROLINA...

CITY           SKY/WX    TMP DP  RH WIND       PRES   REMARKS
ANDERSON       SUNNY     76  57  51 SW12      29.69F
LIBERTY        PTCLDY    78  57  49 W3        29.68F
SPARTANBURG    CLOUDY    72  55  56 W5        29.69F
CLEMSON        SUNNY     77  59  53 SE9       29.70F
GREENVILLE     PTSUNNY   75  57  53 W3        29.70F
GREENWOOD      CLOUDY    73  56  54 CALM      29.72F
GREER          CLOUDY    75  59  57 S8        29.68F
ROCK HILL      CLOUDY    65  58  78 NE5       29.71S
CHESTER        CLOUDY    64  55  72 N3        29.72S
LAURENS        CLOUDY    72  59  64 NW3       29.70F


...CENTRAL SOUTH CAROLINA...

CITY           SKY/WX    TMP DP  RH WIND       PRES   REMARKS
COLUMBIA APT   PTSUNNY   74  56  53 NW10      29.69F
COLUMBIA OWENS CLOUDY    72  55  55 VRB7      29.71F
MCENTIRE ANGB  PTSUNNY   71  58  63 NW8       29.70S
ORANGEBURG     CLOUDY    73  58  59 NW8       29.70F
SUMTER SHAW    CLOUDY    68  57  68 W9        29.68S
NEWBERRY       CLOUDY    72  59  64 NW7       29.74S
AIKEN          MOCLDY    72  57  60 W6        29.74F
BARNWELL       CLOUDY    77  63  61 W8        29.70F
MANNING        CLOUDY    70  57  64 MISG      29.69F
CAMDEN         CLOUDY    66  57  72 W7        29.71S
LANCASTER      CLOUDY    64  61  88 NW3       29.71S
WINNSBORO      MOCLDY    68  59  73 N5        29.71S


...EASTERN AND COASTAL SOUTH CAROLINA...

CITY           SKY/WX    TMP DP  RH WIND       PRES   REMARKS
MYRTLE BEACH   PTSUNNY   66  59  77 W9        29.69S
N MYRTLE BCH   CLOUDY    66  59  78 W10       29.66F
CONWAY         CLOUDY    63  59  88 W6        29.69R
MARION         CLOUDY    63  57  82 W10       29.69S
HARTSVILLE     CLOUDY    63  55  77 W3        29.69S
FLORENCE       CLOUDY    64  59  83 NW5       29.69S
DARLINGTON     CLOUDY    64  58  80 NW10      29.69S
CHARLESTON APT CLOUDY    73  58  59 W10       29.69F
MOUNT PLEASANT MOCLDY    72  61  68 W6        29.69F
WALTERBORO     CLOUDY    72  59  64 NW8       29.70F
BEAUFORT       CLOUDY    77  59  53 W9        29.70F


...EASTERN GEORGIA...

CITY           SKY/WX    TMP DP  RH WIND       PRES   REMARKS
AUGUSTA BUSH F PTSUNNY   78  57  48 NW15      29.69F
AUGUSTA DANIEL CLOUDY    75  56  51 NW8       29.72S
THOMSON        CLOUDY    76  58  53 N9        29.76F
WASHINGTON     FAIR      75  61  60 CALM      29.71F
CLAXTON        MOCLDY    80  62  54 SW10G17   29.72F
SYLVANIA       CLOUDY   N/A N/A N/A W7        29.71F
STATESBORO     CLOUDY    79  57  46 W9G17     29.71F
SAVANNAH       PTSUNNY   80  56  43 W13       29.71F


...SOUTHERN NORTH CAROLINA...

CITY           SKY/WX    TMP DP  RH WIND       PRES   REMARKS
CHARLOTTE      PTSUNNY   66  57  72 NE6       29.71S
MONROE         CLOUDY    66  56  70 N8        29.69F
WADESBORO      CLOUDY    63  57  82 NW3       29.69S
ROCKINGHAM     CLOUDY    63  60  89 W5        29.68F
RUTHERFORDTON  CLOUDY    72  60  65 SE9       29.70S
ASHEVILLE      SUNNY     71  51  49 N14       29.74F

$$




USA.gov is the U.S. government's official web portal to all federal, state and local government web resources and services.